Flag for Germany Weather past 2 weeks in Hürth, North Rhine-Westphalia, Germany

Now
52 °F

Partly sunny.


Feels Like: 52 °F
Forecast: 52 / 80 °F
Wind: No wind

Location: Noervenich

Current Time: Aug 1, 2015 at 7:58:49 AM

Latest Report: Aug 1, 2015 at 7:20 AM


Visibility: N/A

Pressure: 29.98 "Hg

Humidity: 88%

Dew point: 48 °F

Location of HürthLocation

Historic Weather in Hürth — Graph

°F

Hürth temperature yesterday

Maximum temperature yesterday: 66 °F (at 3:20 PM)
Minimum temperature yesterday: 46 °F (at 6:20 AM)
Average temperature yesterday: 57 °F

Past Weeks' High & Low Weather Summary

 TemperatureHumidityPressure
High93 °F (Jul 17, 3:20 PM)100% (Jul 19, 4:20 AM)30.15 "Hg (Jul 19, 4:20 AM)
Low46 °F (Jul 31, 6:20 AM)23% (Jul 17, 3:20 PM)29.53 "Hg (Jul 25, 7:20 AM)
Average65 °F71%29.89 "Hg
* Reported Jul 17 6:20 AM — Aug 1 6:20 AM, Hürth, Weather by CustomWeather, © 2015

Note: Actual official high and low records may vary slightly from our data, if they occured in-between our weather recording intervals... More about our weather records

Advertising

Hürth weather history for previous 24 hours

 ConditionsComfort  
Time TempWeatherWind HumidityBarometerVisibility
6:20 AM
Sat, Aug 1
50 °FPartly cloudy.1 mph88%29.98 "HgN/A
5:20 AM50 °FPartly cloudy.No wind88%29.98 "HgN/A
4:20 AM50 °FPassing clouds.1 mph88%29.98 "HgN/A
3:20 AM52 °FPassing clouds.2 mph82%30.01 "HgN/A
2:20 AM52 °FPassing clouds.1 mph82%30.01 "HgN/A
1:20 AM55 °FPassing clouds.1 mph67%30.01 "HgN/A
12:20 AM55 °FPassing clouds.1 mph67%30.01 "HgN/A
11:20 PM
Fri, Jul 31
55 °FPassing clouds.1 mph72%30.01 "HgN/A
10:20 PM55 °FScattered clouds.No wind72%30.01 "HgN/A
9:20 PM61 °FScattered clouds.1 mph59%30.01 "HgN/A
8:20 PM64 °FPartly sunny.3 mph49%30.01 "HgN/A
7:20 PM66 °FPartly sunny.2 mph43%30.04 "HgN/A
6:20 PM66 °FPartly sunny.2 mph43%30.04 "HgN/A
5:20 PM66 °FPartly sunny.3 mph43%30.07 "HgN/A
4:20 PM66 °FPartly sunny.3 mph40%30.07 "HgN/A
3:20 PM66 °FPartly sunny.2 mph46%30.07 "HgN/A
2:20 PM64 °FPartly sunny.1 mph52%30.09 "HgN/A
1:20 PM63 °FScattered clouds.3 mph52%30.12 "HgN/A
12:20 PM61 °FScattered clouds.3 mph55%30.12 "HgN/A
11:20 AM59 °FScattered clouds.3 mph59%30.15 "HgN/A
10:20 AM55 °FScattered clouds.2 mph72%30.15 "HgN/A
9:20 AM55 °FPassing clouds.1 mph77%30.15 "HgN/A
8:20 AM54 °FPassing clouds.2 mph88%30.15 "Hg6 mi
7:20 AM50 °FFog.3 mph94%30.12 "Hg3 mi
Weather by CustomWeather, © 2015

See weather overviewHow to use our weather pages